Year,Month,Day,Hour,Minute,Value (Times are PST for temperature in C)
2018,05,12,00,00,11.30
2018,05,12,00,01,11.30
2018,05,12,00,02,11.30
2018,05,12,00,03,11.30
2018,05,12,00,04,11.30
2018,05,12,00,05,11.30
2018,05,12,00,06,11.30
2018,05,12,00,07,11.20
2018,05,12,00,08,11.20
2018,05,12,00,09,11.20
2018,05,12,00,10,11.20
2018,05,12,00,11,11.20
2018,05,12,00,12,11.20
2018,05,12,00,13,11.20
2018,05,12,00,14,11.20
2018,05,12,00,15,11.10
2018,05,12,00,16,11.10
2018,05,12,00,17,11.10
2018,05,12,00,18,11.10
2018,05,12,00,19,11.10
2018,05,12,00,20,11.00
2018,05,12,00,21,11.00
2018,05,12,00,22,11.00
2018,05,12,00,23,10.90
2018,05,12,00,24,10.90
2018,05,12,00,25,10.90
2018,05,12,00,26,10.90
2018,05,12,00,27,10.90
2018,05,12,00,28,10.90
2018,05,12,00,29,10.90
2018,05,12,00,30,10.80
2018,05,12,00,31,10.80
2018,05,12,00,32,10.80
2018,05,12,00,33,10.80
2018,05,12,00,34,10.80
2018,05,12,00,35,10.80
2018,05,12,00,36,10.80
2018,05,12,00,37,10.80
2018,05,12,00,38,10.80
2018,05,12,00,39,10.80
2018,05,12,00,40,10.80
2018,05,12,00,41,10.80
2018,05,12,00,42,10.80
2018,05,12,00,43,10.80
2018,05,12,00,44,10.70
2018,05,12,00,45,10.70
2018,05,12,00,46,10.70
2018,05,12,00,47,10.70
2018,05,12,00,48,10.70
2018,05,12,00,49,10.70
2018,05,12,00,50,10.60
2018,05,12,00,51,10.60
2018,05,12,00,52,10.60
2018,05,12,00,53,10.60
2018,05,12,00,54,10.60
2018,05,12,00,55,10.60
2018,05,12,00,56,10.60
2018,05,12,00,57,10.60
2018,05,12,00,58,10.60
2018,05,12,00,59,10.50
2018,05,12,01,00,10.50
2018,05,12,01,01,10.50
2018,05,12,01,02,10.50
2018,05,12,01,03,10.50
2018,05,12,01,04,10.50
2018,05,12,01,05,10.50
2018,05,12,01,06,10.50
2018,05,12,01,07,10.50
2018,05,12,01,08,10.50
2018,05,12,01,09,10.40
2018,05,12,01,10,10.40
2018,05,12,01,11,10.40
2018,05,12,01,12,10.40
2018,05,12,01,13,10.40
2018,05,12,01,14,10.40
2018,05,12,01,15,10.40
2018,05,12,01,16,10.30
2018,05,12,01,17,10.30
2018,05,12,01,18,10.30
2018,05,12,01,19,10.30
2018,05,12,01,20,10.30
2018,05,12,01,21,10.30
2018,05,12,01,22,10.30
2018,05,12,01,23,10.20
2018,05,12,01,24,10.20
2018,05,12,01,25,10.20
2018,05,12,01,26,10.20
2018,05,12,01,27,10.20
2018,05,12,01,28,10.10
2018,05,12,01,29,10.10
2018,05,12,01,30,10.10
2018,05,12,01,31,10.10
2018,05,12,01,32,10.00
2018,05,12,01,33,10.00
2018,05,12,01,34,10.00
2018,05,12,01,35,9.90
2018,05,12,01,36,9.90
2018,05,12,01,37,9.90
2018,05,12,01,38,9.90
2018,05,12,01,39,9.90
2018,05,12,01,40,9.90
2018,05,12,01,41,9.90
2018,05,12,01,42,9.90
2018,05,12,01,43,9.90
2018,05,12,01,44,9.90
2018,05,12,01,45,9.80
2018,05,12,01,46,9.80
2018,05,12,01,47,9.80
2018,05,12,01,48,9.80
2018,05,12,01,49,9.80
2018,05,12,01,50,9.80
2018,05,12,01,51,9.80
2018,05,12,01,52,9.80
2018,05,12,01,53,9.80
2018,05,12,01,54,9.70
2018,05,12,01,55,9.70
2018,05,12,01,56,9.70
2018,05,12,01,57,9.70
2018,05,12,01,58,9.70
2018,05,12,01,59,9.70
2018,05,12,02,00,9.70
2018,05,12,02,01,9.70
2018,05,12,02,02,9.70
2018,05,12,02,03,9.70
2018,05,12,02,04,9.70
2018,05,12,02,05,9.70
2018,05,12,02,06,9.70
2018,05,12,02,07,9.60
2018,05,12,02,08,9.60
2018,05,12,02,09,9.60
2018,05,12,02,10,9.60
2018,05,12,02,11,9.60
2018,05,12,02,12,9.60
2018,05,12,02,13,9.60
2018,05,12,02,14,9.60
2018,05,12,02,15,9.60
2018,05,12,02,16,9.60
2018,05,12,02,17,9.50
2018,05,12,02,18,9.50
2018,05,12,02,19,9.50
2018,05,12,02,20,9.50
2018,05,12,02,21,9.50
2018,05,12,02,22,9.50
2018,05,12,02,23,9.50
2018,05,12,02,24,9.50
2018,05,12,02,25,9.50
2018,05,12,02,26,9.50
2018,05,12,02,27,9.50
2018,05,12,02,28,9.50
2018,05,12,02,29,9.50
2018,05,12,02,30,9.60
2018,05,12,02,31,9.60
2018,05,12,02,32,9.60
2018,05,12,02,33,9.60
2018,05,12,02,34,9.60
2018,05,12,02,35,9.60
2018,05,12,02,36,9.60
2018,05,12,02,37,9.60
2018,05,12,02,38,9.60
2018,05,12,02,39,9.60
2018,05,12,02,40,9.50
2018,05,12,02,41,9.50
2018,05,12,02,42,9.40
2018,05,12,02,43,9.40
2018,05,12,02,44,9.40
2018,05,12,02,45,9.40
2018,05,12,02,46,9.30
2018,05,12,02,47,9.30
2018,05,12,02,48,9.30
2018,05,12,02,49,9.30
2018,05,12,02,50,9.30
2018,05,12,02,51,9.30
2018,05,12,02,52,9.30
2018,05,12,02,53,9.40
2018,05,12,02,54,9.40
2018,05,12,02,55,9.40
2018,05,12,02,56,9.40
2018,05,12,02,57,9.40
2018,05,12,02,58,9.50
2018,05,12,02,59,9.50
2018,05,12,03,00,9.50
2018,05,12,03,01,9.50
2018,05,12,03,02,9.50
2018,05,12,03,03,9.50
2018,05,12,03,04,9.50
2018,05,12,03,05,9.40
2018,05,12,03,06,9.40
2018,05,12,03,07,9.40
2018,05,12,03,08,9.30
2018,05,12,03,09,9.30
2018,05,12,03,10,9.30
2018,05,12,03,11,9.30
2018,05,12,03,12,9.30
2018,05,12,03,13,9.20
2018,05,12,03,14,9.20
2018,05,12,03,15,9.20
2018,05,12,03,16,9.20
2018,05,12,03,17,9.20
2018,05,12,03,18,9.20
2018,05,12,03,19,9.10
2018,05,12,03,20,9.10
2018,05,12,03,21,9.10
2018,05,12,03,22,9.10
2018,05,12,03,23,9.10
2018,05,12,03,24,9.10
2018,05,12,03,25,9.10
2018,05,12,03,26,9.10
2018,05,12,03,27,9.10
2018,05,12,03,28,9.10
2018,05,12,03,29,9.10
2018,05,12,03,30,9.10
2018,05,12,03,31,9.00
2018,05,12,03,32,9.00
2018,05,12,03,33,9.00
2018,05,12,03,34,9.00
2018,05,12,03,35,9.00
2018,05,12,03,36,9.00
2018,05,12,03,37,9.00
2018,05,12,03,38,9.00
2018,05,12,03,39,9.00
2018,05,12,03,40,9.00
2018,05,12,03,41,9.00
2018,05,12,03,42,8.90
2018,05,12,03,43,8.90
2018,05,12,03,44,8.90
2018,05,12,03,45,8.90
2018,05,12,03,46,8.90
2018,05,12,03,47,8.90
2018,05,12,03,48,8.90
2018,05,12,03,49,8.90
2018,05,12,03,50,8.90
2018,05,12,03,51,8.90
2018,05,12,03,52,8.90
2018,05,12,03,53,8.90
2018,05,12,03,54,8.90
2018,05,12,03,55,8.90
2018,05,12,03,56,8.90
2018,05,12,03,57,8.90
2018,05,12,03,58,8.90
2018,05,12,03,59,8.90
2018,05,12,04,00,8.90
2018,05,12,04,01,8.90
2018,05,12,04,02,8.90
2018,05,12,04,03,8.90
2018,05,12,05,04,9.30
2018,05,12,05,05,9.30
2018,05,12,05,06,9.20
2018,05,12,05,07,9.20
2018,05,12,05,08,9.20
2018,05,12,05,09,9.20
2018,05,12,05,10,9.20
2018,05,12,05,11,9.20
2018,05,12,05,12,9.20
2018,05,12,05,13,9.20
2018,05,12,05,14,9.10
2018,05,12,05,15,9.10
2018,05,12,05,16,9.10
2018,05,12,05,17,9.10
2018,05,12,05,18,9.10
2018,05,12,05,19,9.10
2018,05,12,05,20,9.10
2018,05,12,05,21,9.10
2018,05,12,05,22,9.20
2018,05,12,05,23,9.20
2018,05,12,05,24,9.20
2018,05,12,05,25,9.20
2018,05,12,05,26,9.30
2018,05,12,05,27,9.30
2018,05,12,05,28,9.40
2018,05,12,05,29,9.40
2018,05,12,05,30,9.40
2018,05,12,05,31,9.40
2018,05,12,05,32,9.50
2018,05,12,05,33,9.50
2018,05,12,05,34,9.50
2018,05,12,05,35,9.50
2018,05,12,05,36,9.50
2018,05,12,05,37,9.50
2018,05,12,05,38,9.50
2018,05,12,05,39,9.40
2018,05,12,05,40,9.40
2018,05,12,05,41,9.30
2018,05,12,05,42,9.30
2018,05,12,05,43,9.20
2018,05,12,05,44,9.20
2018,05,12,05,45,9.20
2018,05,12,05,46,9.10
2018,05,12,05,47,9.10
2018,05,12,05,48,9.10
2018,05,12,05,49,9.10
2018,05,12,05,50,9.00
2018,05,12,05,51,9.00
2018,05,12,05,52,9.00
2018,05,12,05,53,8.90
2018,05,12,05,54,8.90
2018,05,12,05,55,8.90
2018,05,12,05,56,8.90
2018,05,12,05,57,8.90
2018,05,12,05,58,8.90
2018,05,12,05,59,8.90
2018,05,12,06,00,8.90
2018,05,12,06,01,8.90
2018,05,12,06,02,8.90
2018,05,12,06,03,8.90
2018,05,12,06,04,8.90
2018,05,12,06,05,8.90
2018,05,12,06,06,8.90
2018,05,12,06,07,8.90
2018,05,12,06,08,8.90
2018,05,12,06,09,8.90
2018,05,12,06,10,8.90
2018,05,12,06,11,9.00
2018,05,12,06,12,9.00
2018,05,12,06,13,9.00
2018,05,12,06,14,9.10
2018,05,12,06,15,9.10
2018,05,12,06,16,9.10
2018,05,12,06,17,9.10
2018,05,12,06,18,9.10
2018,05,12,06,19,9.10
2018,05,12,06,20,9.20
2018,05,12,06,21,9.20
2018,05,12,06,22,9.20
2018,05,12,06,23,9.20
2018,05,12,06,24,9.20
2018,05,12,06,25,9.20
2018,05,12,06,26,9.20
2018,05,12,06,27,9.20
2018,05,12,06,28,9.20
2018,05,12,06,29,9.10
2018,05,12,06,30,9.10
2018,05,12,06,31,9.10
2018,05,12,06,32,9.10
2018,05,12,06,33,9.10
2018,05,12,06,34,9.10
2018,05,12,06,35,9.10
2018,05,12,06,36,9.10
2018,05,12,06,37,9.10
2018,05,12,06,38,9.10
2018,05,12,06,39,9.20
2018,05,12,06,40,9.20
2018,05,12,06,41,9.20
2018,05,12,06,42,9.30
2018,05,12,06,43,9.30
2018,05,12,06,44,9.30
2018,05,12,06,45,9.40
2018,05,12,06,46,9.40
2018,05,12,06,47,9.40
2018,05,12,06,48,9.40
2018,05,12,06,49,9.50
2018,05,12,06,50,9.50
2018,05,12,06,51,9.60
2018,05,12,06,52,9.60
2018,05,12,06,53,9.70
2018,05,12,06,54,9.70
2018,05,12,06,55,9.80
2018,05,12,06,56,9.80
2018,05,12,06,57,9.90
2018,05,12,06,58,9.90
2018,05,12,06,59,10.00
2018,05,12,07,00,10.10
2018,05,12,07,01,10.10
2018,05,12,07,02,10.20
2018,05,12,07,03,10.20
2018,05,12,07,04,10.30
2018,05,12,07,05,10.40
2018,05,12,07,06,10.50
2018,05,12,07,07,10.50
2018,05,12,07,08,10.60
2018,05,12,07,09,10.70
2018,05,12,07,10,10.70
2018,05,12,07,11,10.80
2018,05,12,07,12,10.90
2018,05,12,07,13,10.90
2018,05,12,07,14,11.00
2018,05,12,07,15,11.10
2018,05,12,07,16,11.10
2018,05,12,07,17,11.10
2018,05,12,07,18,11.20
2018,05,12,07,19,11.20
2018,05,12,07,20,11.30
2018,05,12,07,21,11.30
2018,05,12,07,22,11.40
2018,05,12,07,23,11.50
2018,05,12,07,24,11.50
2018,05,12,07,25,11.60
2018,05,12,07,26,11.70
2018,05,12,07,27,11.80
2018,05,12,07,28,11.80
2018,05,12,07,29,11.90
2018,05,12,07,30,12.00
2018,05,12,07,31,12.10
2018,05,12,07,32,12.10
2018,05,12,07,33,12.20
2018,05,12,07,34,12.30
2018,05,12,07,35,12.30
2018,05,12,07,36,12.40
2018,05,12,07,37,12.40
2018,05,12,07,38,12.50
2018,05,12,07,39,12.50
2018,05,12,07,40,12.60
2018,05,12,07,41,12.70
2018,05,12,07,42,12.70
2018,05,12,07,43,12.80
2018,05,12,07,44,12.80
2018,05,12,07,45,12.90
2018,05,12,07,46,13.00
2018,05,12,07,47,13.10
2018,05,12,07,48,13.20
2018,05,12,07,49,13.30
2018,05,12,07,50,13.30
2018,05,12,07,51,13.40
2018,05,12,07,52,13.50
2018,05,12,07,53,13.50
2018,05,12,07,54,13.50
2018,05,12,07,55,13.60
2018,05,12,07,56,13.60
2018,05,12,07,57,13.60
2018,05,12,07,58,13.60
2018,05,12,07,59,13.70
2018,05,12,08,00,13.70
2018,05,12,08,01,13.70
2018,05,12,08,02,13.80
2018,05,12,08,03,13.80
2018,05,12,08,04,13.90
2018,05,12,08,05,13.90
2018,05,12,08,06,14.00
2018,05,12,08,07,14.00
2018,05,12,08,08,14.10
2018,05,12,08,09,14.10
2018,05,12,08,10,14.20
2018,05,12,08,11,14.20
2018,05,12,08,12,14.20
2018,05,12,08,13,14.20
2018,05,12,08,14,14.20
2018,05,12,08,15,14.20
2018,05,12,08,16,14.20
2018,05,12,08,17,14.20
2018,05,12,08,18,14.20
2018,05,12,08,19,14.30
2018,05,12,08,20,14.30
2018,05,12,08,21,14.40
2018,05,12,08,22,14.40
2018,05,12,08,23,14.50
2018,05,12,08,24,14.50
2018,05,12,08,25,14.60
2018,05,12,08,26,14.60
2018,05,12,08,27,14.70
2018,05,12,08,28,14.70
2018,05,12,08,29,14.60
2018,05,12,08,30,14.60
2018,05,12,08,31,14.60
2018,05,12,08,32,14.70
2018,05,12,08,33,14.70
2018,05,12,08,34,14.70
2018,05,12,08,35,14.80
2018,05,12,08,36,14.80
2018,05,12,08,37,14.80
2018,05,12,08,38,14.80
2018,05,12,08,39,14.80
2018,05,12,08,40,14.80
2018,05,12,08,41,14.80
2018,05,12,08,42,14.90
2018,05,12,08,43,15.00
2018,05,12,08,44,15.00
2018,05,12,08,45,15.10
2018,05,12,08,46,15.10
2018,05,12,08,47,15.20
2018,05,12,08,48,15.20
2018,05,12,08,49,15.20
2018,05,12,08,50,15.20
2018,05,12,08,51,15.20
2018,05,12,08,52,15.20
2018,05,12,08,53,15.30
2018,05,12,08,54,15.30
2018,05,12,08,55,15.30
2018,05,12,08,56,15.30
2018,05,12,08,57,15.30
2018,05,12,08,58,15.30
2018,05,12,08,59,15.30
2018,05,12,09,00,15.30
2018,05,12,09,01,15.30
2018,05,12,09,02,15.30
2018,05,12,09,03,15.40
2018,05,12,09,04,15.40
2018,05,12,09,05,15.40
2018,05,12,09,06,15.40
2018,05,12,09,07,15.40
2018,05,12,09,08,15.30
2018,05,12,09,09,15.30
2018,05,12,09,10,15.30
2018,05,12,09,11,15.30
2018,05,12,09,12,15.30
2018,05,12,09,13,15.30
2018,05,12,09,14,15.30
2018,05,12,09,15,15.30
2018,05,12,09,16,15.30
2018,05,12,09,17,15.30
2018,05,12,09,18,15.30
2018,05,12,09,19,15.30
2018,05,12,09,20,15.20
2018,05,12,09,21,15.20
2018,05,12,09,22,15.20
2018,05,12,09,23,15.20
2018,05,12,09,24,15.20
2018,05,12,09,25,15.30
2018,05,12,09,26,15.30
2018,05,12,09,27,15.50
2018,05,12,09,28,15.60
2018,05,12,09,29,15.60
2018,05,12,09,30,15.60
2018,05,12,09,31,15.60
2018,05,12,09,32,15.60
2018,05,12,09,33,15.60
2018,05,12,09,34,15.50
2018,05,12,09,35,15.60
2018,05,12,09,36,15.60
2018,05,12,09,37,15.60
2018,05,12,09,38,15.60
2018,05,12,09,39,15.60
2018,05,12,09,40,15.60
2018,05,12,09,41,15.70
2018,05,12,09,42,15.70
2018,05,12,09,43,15.80
2018,05,12,09,44,15.90
2018,05,12,09,45,15.90
2018,05,12,09,46,16.00
2018,05,12,09,47,16.10
2018,05,12,09,48,16.10
2018,05,12,09,49,16.10
2018,05,12,09,50,16.10
2018,05,12,09,51,16.10
2018,05,12,09,52,16.10
2018,05,12,09,53,16.20
2018,05,12,09,54,16.20
2018,05,12,09,55,16.30
2018,05,12,09,56,16.40
2018,05,12,09,57,16.40
2018,05,12,09,58,16.40
2018,05,12,09,59,16.50
2018,05,12,10,00,16.50
2018,05,12,10,01,16.50
2018,05,12,10,02,16.50
2018,05,12,10,03,16.60
2018,05,12,10,04,16.60
2018,05,12,10,05,16.60
2018,05,12,10,06,16.70
2018,05,12,10,07,16.70
2018,05,12,10,08,16.70
2018,05,12,10,09,16.70
2018,05,12,10,10,16.80
2018,05,12,10,11,16.80
2018,05,12,10,12,16.80
2018,05,12,10,13,16.80
2018,05,12,10,14,16.80
2018,05,12,10,15,16.80
2018,05,12,10,16,16.80
2018,05,12,10,17,16.80
2018,05,12,10,18,16.70
2018,05,12,10,19,16.70
2018,05,12,10,20,16.60
2018,05,12,10,21,16.60
2018,05,12,10,22,16.60
2018,05,12,10,23,16.60
2018,05,12,10,24,16.60
2018,05,12,10,25,16.60
2018,05,12,10,26,16.70
2018,05,12,10,27,16.70
2018,05,12,10,28,16.70
2018,05,12,10,29,16.60
2018,05,12,10,30,16.60
2018,05,12,10,31,16.60
2018,05,12,10,32,16.60
2018,05,12,10,33,16.60
2018,05,12,10,34,16.60
2018,05,12,10,35,16.60
2018,05,12,10,36,16.60
2018,05,12,10,37,16.60
2018,05,12,10,38,16.70
2018,05,12,10,39,16.80
2018,05,12,10,40,16.90
2018,05,12,10,41,17.00
2018,05,12,10,42,17.10
2018,05,12,10,43,17.10
2018,05,12,10,44,17.10
2018,05,12,10,45,17.20
2018,05,12,10,46,17.30
2018,05,12,10,47,17.40
2018,05,12,10,48,17.40
2018,05,12,10,49,17.50
2018,05,12,10,50,17.60
2018,05,12,10,51,17.60
2018,05,12,10,52,17.60
2018,05,12,10,53,17.60
2018,05,12,10,54,17.50
2018,05,12,10,55,17.50
2018,05,12,10,56,17.40
2018,05,12,10,57,17.40
2018,05,12,10,58,17.40
2018,05,12,10,59,17.40
2018,05,12,11,00,17.40
2018,05,12,11,01,17.40
2018,05,12,11,02,17.40
2018,05,12,11,03,17.40
2018,05,12,11,04,17.40
2018,05,12,11,05,17.40
2018,05,12,11,06,17.40
2018,05,12,11,07,17.50
2018,05,12,11,08,17.50
2018,05,12,11,09,17.60
2018,05,12,11,10,17.60
2018,05,12,11,11,17.60
2018,05,12,11,12,17.50
2018,05,12,11,13,17.40
2018,05,12,11,14,17.40
2018,05,12,11,15,17.30
2018,05,12,11,16,17.30
2018,05,12,11,17,17.30
2018,05,12,11,18,17.30
2018,05,12,11,19,17.30
2018,05,12,11,20,17.30
2018,05,12,11,21,17.20
2018,05,12,11,22,17.20
2018,05,12,11,23,17.20
2018,05,12,11,24,17.20
2018,05,12,11,25,17.30
2018,05,12,11,26,17.30
2018,05,12,11,27,17.30
2018,05,12,11,28,17.30
2018,05,12,11,29,17.30
2018,05,12,11,30,17.40
2018,05,12,11,31,17.40
2018,05,12,11,32,17.40
2018,05,12,11,33,17.40
2018,05,12,11,34,17.40
2018,05,12,11,35,17.40
2018,05,12,11,36,17.40
2018,05,12,11,37,17.50
2018,05,12,11,38,17.60
2018,05,12,11,39,17.70
2018,05,12,11,40,17.80
2018,05,12,11,41,17.80
2018,05,12,11,42,17.80
2018,05,12,11,43,17.80
2018,05,12,11,44,17.90
2018,05,12,11,45,17.90
2018,05,12,11,46,17.90
2018,05,12,11,47,17.90
2018,05,12,11,48,18.00
2018,05,12,11,49,18.00
2018,05,12,11,50,18.00
2018,05,12,11,51,18.00
2018,05,12,11,52,18.00
2018,05,12,11,53,18.00
2018,05,12,11,54,18.00
2018,05,12,11,55,18.00
2018,05,12,11,56,18.10
2018,05,12,11,57,18.10
2018,05,12,11,58,18.10
2018,05,12,11,59,18.10
2018,05,12,12,00,18.00
2018,05,12,12,01,18.00
2018,05,12,12,02,18.00
2018,05,12,12,03,18.00
2018,05,12,12,04,18.10
2018,05,12,12,05,18.10
2018,05,12,12,06,18.10
2018,05,12,12,07,18.10
2018,05,12,12,08,18.10
2018,05,12,12,09,18.00
2018,05,12,12,10,18.00
2018,05,12,12,11,18.00
2018,05,12,12,12,18.00
2018,05,12,12,13,18.10
2018,05,12,12,14,18.10
2018,05,12,12,15,18.10
2018,05,12,12,16,18.10
2018,05,12,12,17,18.10
2018,05,12,12,18,18.20
2018,05,12,12,19,18.20
2018,05,12,12,20,18.20
2018,05,12,12,21,18.10
2018,05,12,12,22,18.10
2018,05,12,12,23,18.20
2018,05,12,12,24,18.20
2018,05,12,12,25,18.20
2018,05,12,12,26,18.30
2018,05,12,12,27,18.40
2018,05,12,12,28,18.50
2018,05,12,12,29,18.60
2018,05,12,12,30,18.80
2018,05,12,12,31,18.90
2018,05,12,12,32,19.10
2018,05,12,12,33,19.30
2018,05,12,12,34,19.40
2018,05,12,12,35,19.50
2018,05,12,12,36,19.50
2018,05,12,12,37,19.60
2018,05,12,12,38,19.70
2018,05,12,12,39,19.70
2018,05,12,12,40,19.70
2018,05,12,12,41,19.80
2018,05,12,12,42,19.80
2018,05,12,12,43,19.80
2018,05,12,12,44,19.80
2018,05,12,12,45,19.90
2018,05,12,12,46,19.90
2018,05,12,12,47,19.90
2018,05,12,12,48,19.90
2018,05,12,12,49,19.90
2018,05,12,12,50,19.80
2018,05,12,12,51,19.80
2018,05,12,12,52,19.70
2018,05,12,12,53,19.70
2018,05,12,12,54,19.60
2018,05,12,12,55,19.60
2018,05,12,12,56,19.60
2018,05,12,12,57,19.50
2018,05,12,12,58,19.60
2018,05,12,12,59,19.60
2018,05,12,13,00,19.60
2018,05,12,13,01,19.70
2018,05,12,13,02,19.70
2018,05,12,13,03,19.70
2018,05,12,13,04,19.80
2018,05,12,13,05,19.80
2018,05,12,13,06,19.80
2018,05,12,13,07,19.80
2018,05,12,13,08,19.80
2018,05,12,13,09,19.80
2018,05,12,13,10,19.80
2018,05,12,13,11,19.80
2018,05,12,13,12,19.80
2018,05,12,13,13,19.80
2018,05,12,13,14,19.70
2018,05,12,13,15,19.70
2018,05,12,13,16,19.70
2018,05,12,13,17,19.70
2018,05,12,13,18,19.70
2018,05,12,13,19,19.70
2018,05,12,13,20,19.60
2018,05,12,13,21,19.60
2018,05,12,13,22,19.60
2018,05,12,13,23,19.60
2018,05,12,13,24,19.50
2018,05,12,13,25,19.50
2018,05,12,13,26,19.60
2018,05,12,13,27,19.60
2018,05,12,13,28,19.60
2018,05,12,13,29,19.60
2018,05,12,13,30,19.60
2018,05,12,13,31,19.70
2018,05,12,13,32,19.70
2018,05,12,13,33,19.70
2018,05,12,13,34,19.60
2018,05,12,13,35,19.60
2018,05,12,13,36,19.70
2018,05,12,13,37,19.80
2018,05,12,13,38,19.90
2018,05,12,13,39,20.10
2018,05,12,13,40,20.30
2018,05,12,13,41,20.50
2018,05,12,13,42,20.60
2018,05,12,13,43,20.70
2018,05,12,13,44,20.70
2018,05,12,13,45,20.70
2018,05,12,13,46,20.70
2018,05,12,13,47,20.70
2018,05,12,13,48,20.70
2018,05,12,13,49,20.70
2018,05,12,13,50,20.70
2018,05,12,13,51,20.70
2018,05,12,13,52,20.70
2018,05,12,13,53,20.70
2018,05,12,13,54,20.60
2018,05,12,13,55,20.60
2018,05,12,13,56,20.50
2018,05,12,13,57,20.40
2018,05,12,13,58,20.50
2018,05,12,13,59,20.60
2018,05,12,14,00,20.70
2018,05,12,14,01,20.80
2018,05,12,14,02,20.80
2018,05,12,14,03,20.90
2018,05,12,14,04,20.90
2018,05,12,14,05,21.00
2018,05,12,14,06,21.10
2018,05,12,14,07,21.10
2018,05,12,14,08,21.10
2018,05,12,14,09,21.10
2018,05,12,14,10,21.10
2018,05,12,14,11,21.20
2018,05,12,14,12,21.30
2018,05,12,14,13,21.40
2018,05,12,14,14,21.50
2018,05,12,14,15,21.50
2018,05,12,14,16,21.50
2018,05,12,14,17,21.50
2018,05,12,14,18,21.50
2018,05,12,14,19,21.60
2018,05,12,14,20,21.70
2018,05,12,14,21,21.90
2018,05,12,14,22,22.00
2018,05,12,14,23,22.20
2018,05,12,14,24,22.30
2018,05,12,14,25,22.40
2018,05,12,14,26,22.40
2018,05,12,14,27,22.50
2018,05,12,14,28,22.60
2018,05,12,14,29,22.70
2018,05,12,14,30,22.70
2018,05,12,14,31,22.80
2018,05,12,14,32,22.80
2018,05,12,14,33,22.90
2018,05,12,14,34,22.90
2018,05,12,14,35,23.00
2018,05,12,14,36,23.10
2018,05,12,14,37,23.10
2018,05,12,14,38,23.20
2018,05,12,14,39,23.20
2018,05,12,14,40,23.20
2018,05,12,14,41,23.30
2018,05,12,14,42,23.30
2018,05,12,14,43,23.30
2018,05,12,14,44,23.30
2018,05,12,14,45,23.30
2018,05,12,14,46,23.30
2018,05,12,14,47,23.30
2018,05,12,14,48,23.30
2018,05,12,14,49,23.30
2018,05,12,14,50,23.30
2018,05,12,14,51,23.40
2018,05,12,14,52,23.40
2018,05,12,14,53,23.40
2018,05,12,14,54,23.40
2018,05,12,14,55,23.40
2018,05,12,14,56,23.50
2018,05,12,14,57,23.60
2018,05,12,14,58,23.60
2018,05,12,14,59,23.70
2018,05,12,15,00,23.80
2018,05,12,15,01,23.90
2018,05,12,15,02,24.00
2018,05,12,15,03,24.00
2018,05,12,15,04,24.10
2018,05,12,15,05,24.20
2018,05,12,15,06,24.30
2018,05,12,15,07,24.30
2018,05,12,15,08,24.30
2018,05,12,15,09,24.40
2018,05,12,15,10,24.40
2018,05,12,15,11,24.50
2018,05,12,15,12,24.50
2018,05,12,15,13,24.50
2018,05,12,15,14,24.40
2018,05,12,15,15,24.40
2018,05,12,15,16,24.30
2018,05,12,15,17,24.20
2018,05,12,15,18,24.20
2018,05,12,15,19,24.10
2018,05,12,15,20,24.00
2018,05,12,15,21,24.00
2018,05,12,15,22,24.00
2018,05,12,15,23,24.00
2018,05,12,15,24,24.10
2018,05,12,15,25,24.10
2018,05,12,15,26,24.10
2018,05,12,15,27,24.00
2018,05,12,15,28,23.90
2018,05,12,15,29,23.80
2018,05,12,15,30,23.60
2018,05,12,15,31,23.40
2018,05,12,15,32,23.30
2018,05,12,15,33,23.20
2018,05,12,15,34,23.10
2018,05,12,15,35,22.90
2018,05,12,15,36,22.70
2018,05,12,15,37,22.60
2018,05,12,15,38,22.40
2018,05,12,15,39,22.30
2018,05,12,15,40,22.30
2018,05,12,15,41,22.20
2018,05,12,15,42,22.20
2018,05,12,15,43,22.30
2018,05,12,15,44,22.40
2018,05,12,15,45,22.50
2018,05,12,15,46,22.60
2018,05,12,15,47,22.60
2018,05,12,15,48,22.70
2018,05,12,15,49,22.70
2018,05,12,15,50,22.70
2018,05,12,15,51,22.70
2018,05,12,15,52,22.80
2018,05,12,15,53,22.70
2018,05,12,15,54,22.70
2018,05,12,15,55,22.70
2018,05,12,15,56,22.70
2018,05,12,15,57,22.70
2018,05,12,15,58,22.80
2018,05,12,15,59,22.90
2018,05,12,16,00,22.90
2018,05,12,16,01,23.00
2018,05,12,16,02,23.20
2018,05,12,16,03,23.30
2018,05,12,16,04,23.40
2018,05,12,16,05,23.50
2018,05,12,16,06,23.60
2018,05,12,16,07,23.70
2018,05,12,16,08,23.70
2018,05,12,16,09,23.80
2018,05,12,16,10,23.80
2018,05,12,16,11,23.80
2018,05,12,16,12,23.90
2018,05,12,16,13,23.90
2018,05,12,16,14,24.00
2018,05,12,16,15,24.00
2018,05,12,16,16,24.10
2018,05,12,16,17,24.20
2018,05,12,16,18,24.30
2018,05,12,16,19,24.30
2018,05,12,16,20,24.40
2018,05,12,16,21,24.40
2018,05,12,16,22,24.40
2018,05,12,16,23,24.50
2018,05,12,16,24,24.60
2018,05,12,16,25,24.60
2018,05,12,16,26,24.70
2018,05,12,16,27,24.70
2018,05,12,16,28,24.80
2018,05,12,16,29,24.90
2018,05,12,16,30,25.00
2018,05,12,16,31,25.10
2018,05,12,16,32,25.10
2018,05,12,16,33,25.20
2018,05,12,16,34,25.10
2018,05,12,16,35,24.90
2018,05,12,16,36,24.80
2018,05,12,16,37,24.70
2018,05,12,16,38,24.70
2018,05,12,16,39,24.50
2018,05,12,16,40,24.40
2018,05,12,16,41,24.30
2018,05,12,16,42,24.20
2018,05,12,16,43,24.10
2018,05,12,16,44,24.00
2018,05,12,16,45,23.90
2018,05,12,16,46,23.80
2018,05,12,16,47,23.70
2018,05,12,16,48,23.70
2018,05,12,16,49,23.70
2018,05,12,16,50,23.70
2018,05,12,16,51,23.70
2018,05,12,16,52,23.60
2018,05,12,16,53,23.60
2018,05,12,16,54,23.60
2018,05,12,16,55,23.70
2018,05,12,16,56,23.80
2018,05,12,16,57,23.80
2018,05,12,16,58,23.90
2018,05,12,16,59,24.00
2018,05,12,17,00,24.10
2018,05,12,17,01,24.10
2018,05,12,17,02,24.20
2018,05,12,17,03,24.20
2018,05,12,17,04,24.20
2018,05,12,17,05,24.30
2018,05,12,17,06,24.40
2018,05,12,17,07,24.50
2018,05,12,17,08,24.60
2018,05,12,17,09,24.70
2018,05,12,17,10,24.80
2018,05,12,17,11,24.80
2018,05,12,17,12,24.80
2018,05,12,17,13,24.90
2018,05,12,17,14,24.90
2018,05,12,17,15,24.90
2018,05,12,17,16,24.90
2018,05,12,17,17,24.90
2018,05,12,17,18,24.90
2018,05,12,17,19,24.90
2018,05,12,17,20,24.90
2018,05,12,17,21,24.90
2018,05,12,17,22,24.90
2018,05,12,17,23,24.90
2018,05,12,17,24,24.90
2018,05,12,17,25,24.90
2018,05,12,17,26,24.90
2018,05,12,17,27,24.90
2018,05,12,17,28,24.90
2018,05,12,17,29,24.90
2018,05,12,17,30,25.00
2018,05,12,17,31,25.00
2018,05,12,17,32,25.00
2018,05,12,17,33,24.90
2018,05,12,17,34,24.90
2018,05,12,17,35,24.80
2018,05,12,17,36,24.70
2018,05,12,17,37,24.70
2018,05,12,17,38,24.60
2018,05,12,17,39,24.60
2018,05,12,17,40,24.60
2018,05,12,17,41,24.60
2018,05,12,17,42,24.60
2018,05,12,17,43,24.60
2018,05,12,17,44,24.50
2018,05,12,17,45,24.50
2018,05,12,17,46,24.40
2018,05,12,17,47,24.30
2018,05,12,17,48,24.30
2018,05,12,17,49,24.20
2018,05,12,17,50,24.10
2018,05,12,17,51,24.10
2018,05,12,17,52,24.10
2018,05,12,17,53,24.10
2018,05,12,17,54,24.00
2018,05,12,17,55,24.00
2018,05,12,17,56,23.90
2018,05,12,17,57,23.90
2018,05,12,17,58,23.80
2018,05,12,17,59,23.80
2018,05,12,18,00,23.80
2018,05,12,18,01,23.70
2018,05,12,18,02,23.70
2018,05,12,18,03,23.70
2018,05,12,18,04,23.60
2018,05,12,18,05,23.60
2018,05,12,18,06,23.60
2018,05,12,18,07,23.50
2018,05,12,18,08,23.50
2018,05,12,18,09,23.50
2018,05,12,18,10,23.40
2018,05,12,18,11,23.40
2018,05,12,18,12,23.40
2018,05,12,18,13,23.40
2018,05,12,18,14,23.40
2018,05,12,18,15,23.50
2018,05,12,18,16,23.50
2018,05,12,18,17,23.50
2018,05,12,18,18,23.50
2018,05,12,18,19,23.50
2018,05,12,18,20,23.50
2018,05,12,18,21,23.60
2018,05,12,18,22,23.60
2018,05,12,18,23,23.60
2018,05,12,18,24,23.60
2018,05,12,18,25,23.60
2018,05,12,18,26,23.50
2018,05,12,18,27,23.40
2018,05,12,18,28,23.40
2018,05,12,18,29,23.40
2018,05,12,18,30,23.40